Location: Mahannah Oil Field
(37.4664°N, 96.6003°W)
Time: 19:20:35
(UTC+00:00)

Transit 2A Rocket - Pass Details

Date: 29 January 2021
Orbit: 594 x 908 km, 66.7° (Epoch: 05 March)

Event Time Altitude Azimuth Distance (km) Brightness Sun altitude
Rises 01:10:34 0° 349° (N) 2,892 8.0 -16.8°
Reaches altitude 10° 01:13:55 10° 16° (NNE) 1,951 6.9 -17.5°
Enters shadow 01:14:01 10° 17° (NNE) 1,932 6.8 -17.5°
Maximum altitude 01:16:11 14° 47° (NE) 1,699 - -17.9°
Drops below altitude 10° 01:18:25 10° 79° (E) 1,927 - -18.3°
Sets 01:21:41 0° 106° (ESE) 2,830 - -19.0°
